Wind_Speed
16 16 15 15 14 13 12 12 11 10 9 8 7 7 6 6 5 5 5 4 4 5 5 5 5 5 5 6 6 7 7 8 9 9 10 11 11 12 12 13 13 13 13
19 18 17 16 16 15 14 13 13 12 11 10 8 8 7 7 7 6 6 6 6 6 6 6 6 7 7 7 8 9 9 10 10 11 11 12 12 13 14 14 15 15 15
21 20 19 18 17 16 16 15 14 13 12 11 10 9 8 8 8 8 8 7 7 7 7 8 8 8 9 9 10 10 11 11 12 12 13 13 14 14 15 15 16 16 16
23 22 21 20 19 18 17 16 15 15 14 12 11 11 10 9 9 9 9 9 9 9 9 9 9 10 10 11 11 11 12 13 13 13 14 14 14 15 16 16 17 17 17
25 24 22 21 20 20 19 18 17 16 15 14 13 12 12 11 11 10 10 10 10 11 11 11 11 11 12 12 13 13 14 15 15 15 15 15 15 16 16 17 17 18 18
27 25 24 23 22 21 21 20 19 18 17 16 15 14 13 13 12 12 12 12 12 12 12 12 13 13 13 14 14 15 15 16 16 16 16 16 16 17 17 17 18 18 18
28 27 26 25 24 23 22 21 20 19 18 17 17 16 15 14 14 14 14 14 14 14 14 14 14 15 15 15 16 16 16 17 17 17 17 17 17 17 18 18 18 19 19
29 28 28 27 26 25 24 23 22 21 20 19 18 18 16 16 15 15 15 15 15 15 16 16 17 17 17 18 18 18 18 18 18 18 18 18 18 19 19 19 19 19 20
31 30 29 28 27 26 26 25 24 23 22 21 20 20 19 18 17 17 17 17 17 17 17 18 18 19 20 20 20 19 19 19 19 19 19 19 19 20 19 20 20 20 20
32 31 30 29 28 28 27 26 25 24 23 22 21 21 21 20 19 19 18 19 19 19 19 19 20 21 21 21 21 20 20 20 19 20 19 19 20 20 20 21 21 21 22
33 32 31 31 30 29 28 27 26 25 24 24 23 22 22 22 22 21 20 20 19 19 20 20 21 22 22 22 22 21 21 21 20 20 20 21 21 21 22 22 22 22 23
33 33 32 31 31 30 29 28 27 26 25 24 24 23 23 23 22 22 22 21 21 21 21 22 22 23 22 22 22 22 22 21 22 22 22 22 22 23 23 23 23 23 23
34 33 32 31 30 30 30 29 28 28 26 25 25 24 24 24 23 23 23 23 23 23 23 23 23 23 23 23 23 23 23 22 23 23 23 23 23 24 24 24 24 24 25
34 34 34 32 31 30 29 28 28 27 27 27 26 25 25 25 25 25 24 24 24 24 24 24 24 24 23 23 23 24 24 24 24 23 24 24 25 25 25 25 25 26 26
35 34 34 34 33 31 30 29 28 28 28 27 27 27 27 26 26 26 25 25 26 26 26 25 25 25 25 24 25 25 25 25 24 25 25 26 27 27 27 27 27 28 28
34 34 33 34 34 33 31 30 30 29 29 29 28 28 28 28 28 28 27 27 27 27 27 27 27 26 26 26 26 26 26 26 26 27 27 28 28 28 29 29 29 30 30
34 34 34 33 33 34 33 32 31 31 30 30 30 30 30 29 29 30 30 30 30 29 29 29 28 28 27 27 27 27 27 28 28 29 29 29 29 29 30 30 31 31 32
34 34 34 34 34 34 34 33 32 32 32 32 31 31 31 31 31 30 30 31 31 31 30 30 29 29 29 28 28 29 29 30 30 30 30 31 31 31 31 32 32 32 33
34 34 35 35 35 34 34 34 34 33 34 34 34 34 33 33 33 33 32 32 32 31 31 30 30 30 30 30 30 31 31 31 31 32 32 32 32 32 33 33 34 34 35
33 33 34 35 35 35 34 35 36 35 35 35 35 35 34 34 34 33 33 33 33 32 32 32 31 32 32 31 32 32 32 33 34 34 33 34 34 34 35 35 35 36 36
33 33 34 34 35 35 35 35 36 36 36 36 36 36 36 34 34 34 33 33 33 33 33 33 33 33 33 33 33 34 35 35 35 35 35 35 35 36 37 37 37 37 37
32 33 34 34 34 35 35 36 36 36 37 36 36 36 35 34 34 34 34 34 34 34 34 34 34 34 35 35 36 37 37 36 37 37 37 37 38 38 39 39 40 39 39
29 30 32 34 34 35 36 36 36 36 36 36 36 37 37 36 36 35 35 35 36 36 36 36 35 35 36 37 38 38 38 38 38 38 39 40 40 40 41 41 41 41 42
29 29 28 30 31 33 34 35 35 35 35 36 36 37 37 37 37 37 37 37 37 38 38 37 37 37 38 38 39 39 40 40 41 41 41 42 42 42 43 43 44 44 44
28 28 28 29 30 31 31 32 33 35 36 36 36 37 36 37 37 37 38 38 38 38 38 38 38 38 38 38 38 39 40 41 42 42 43 43 44 45 45 45 46 46 46
27 28 28 28 30 31 31 32 33 34 36 37 37 37 37 37 37 37 37 38 37 38 38 37 38 38 39 40 40 41 42 43 44 44 45 45 46 46 47 47 47 47 47
Wind_Direction
239 241 242 243 240 238 238 237 235 234 231 231 234 238 239 240 242 242 245 253 259 264 267 269 274 283 287 290 293 295 297 298 297 297 297 297 296 295 294 292 291 291 290
239 240 242 242 241 239 237 237 236 236 236 236 238 241 243 244 246 247 251 257 262 266 270 273 278 285 288 291 294 296 296 296 297 297 296 295 294 293 292 291 290 289 288
238 239 240 240 240 238 237 237 237 237 237 237 240 243 245 246 250 253 257 262 266 268 272 277 281 285 288 290 292 294 294 295 296 297 296 295 294 294 293 292 290 288 287
237 237 238 238 239 237 237 238 238 238 239 239 241 244 248 250 252 256 260 265 268 270 274 278 280 283 287 290 291 293 293 293 295 295 295 295 295 295 294 293 291 289 287
236 235 236 236 237 237 237 237 238 239 240 241 243 245 249 252 254 258 263 266 269 273 276 277 279 283 287 289 291 292 293 293 293 294 294 294 294 296 296 295 293 291 288
235 234 234 235 235 236 237 237 237 238 240 242 245 247 249 252 255 258 263 267 270 274 276 277 280 283 285 288 289 291 293 294 294 294 293 293 294 295 295 295 295 293 291
235 234 233 234 235 235 236 236 237 238 240 243 246 248 248 252 256 260 264 268 271 274 276 278 280 282 284 287 288 290 292 293 294 294 294 294 294 295 295 295 294 294 293
233 233 232 233 234 235 235 236 237 238 241 243 246 248 250 253 258 261 264 269 273 275 276 277 279 281 283 284 285 287 289 291 292 292 293 294 294 295 295 294 294 293 293
232 231 231 232 234 235 236 236 237 239 241 244 247 250 252 255 258 262 265 269 272 275 277 278 280 281 282 283 283 285 287 288 289 290 291 293 293 294 294 293 293 294 293
231 230 230 231 233 235 236 236 238 239 241 244 247 251 254 257 260 262 266 269 272 276 278 279 281 281 282 282 282 283 285 287 288 289 290 291 292 293 292 292 292 292 292
229 229 229 231 233 235 236 236 237 239 242 246 248 251 255 259 261 263 265 268 271 275 278 280 281 281 281 281 281 282 284 286 287 288 288 289 290 291 291 290 290 290 291
229 229 229 231 233 234 235 235 236 239 242 246 249 252 255 258 260 263 266 268 270 273 277 280 281 281 280 279 280 282 284 285 286 287 288 289 290 291 291 291 290 290 291
229 230 230 231 232 233 234 236 237 239 243 247 250 253 254 257 260 263 266 269 272 274 277 280 281 281 280 279 279 281 283 285 286 287 288 289 290 291 291 291 290 290 290
228 230 230 231 232 233 233 236 238 240 243 246 250 252 255 258 260 263 266 270 273 274 277 279 280 280 280 280 281 281 283 285 285 285 287 289 290 290 290 291 290 291 291
227 229 230 232 233 233 234 237 239 242 245 248 252 253 255 257 259 262 266 270 272 275 277 278 280 281 281 281 281 282 284 285 284 285 287 289 289 290 289 290 290 290 290
228 228 230 233 233 234 235 237 241 243 246 249 252 255 257 258 260 263 266 269 272 275 277 278 279 279 280 281 282 283 284 284 285 286 287 288 289 289 289 290 290 290 290
227 228 230 233 234 235 236 239 241 244 246 249 252 254 256 259 263 265 266 269 272 275 277 278 278 279 280 281 281 282 282 284 285 286 287 287 288 289 289 290 290 290 289
226 228 230 232 234 236 237 239 242 245 247 250 252 254 256 260 263 266 267 269 272 274 275 276 276 278 279 280 280 282 283 284 285 286 287 288 288 289 289 290 290 290 290
226 229 231 232 234 237 239 241 244 247 249 250 252 255 258 260 263 266 268 270 272 273 274 274 274 276 279 280 280 282 283 285 287 287 287 287 288 289 289 290 290 290 289
226 229 233 235 236 239 241 243 245 248 250 250 253 256 258 260 263 265 268 270 272 273 273 273 273 275 278 279 280 282 284 286 287 287 287 287 287 288 289 290 290 290 289
229 231 234 237 239 241 243 245 247 249 252 252 253 255 257 260 264 267 269 271 271 272 272 273 273 275 277 279 280 282 284 285 286 286 287 287 287 289 289 289 289 289 288
231 233 236 239 242 243 245 247 250 252 253 254 256 258 259 261 264 266 267 269 270 270 271 273 274 276 277 279 280 282 283 284 285 285 286 286 288 288 288 288 288 288 288
235 237 240 242 244 246 247 248 251 254 255 258 259 259 260 262 265 266 268 269 269 271 272 274 276 278 279 280 281 282 283 284 284 285 286 287 288 289 288 288 288 288 287
238 241 243 245 246 248 250 252 254 256 258 260 262 263 263 265 268 268 270 272 272 273 273 275 278 279 280 282 282 283 284 284 284 284 285 286 287 288 288 289 288 287 287
241 244 246 248 250 251 253 255 257 258 260 263 265 264 264 266 267 269 272 274 275 276 277 277 278 280 281 283 284 284 284 285 285 286 286 287 287 287 287 288 288 287 287
244 245 246 248 251 253 255 258 260 261 262 264 265 265 266 267 268 270 272 273 275 276 276 277 279 281 283 284 284 285 286 286 286 287 287 287 287 288 288 289 289 288 287
Height
5857 5858 5859 5861 5862 5863 5864 5865 5866 5866 5867 5867 5867 5868 5868 5868 5869 5869 5869 5869 5869 5869 5869 5869 5869 5869 5869 5869 5868 5868 5868 5868 5867 5867 5867 5866 5866 5866 5865 5865 5865 5864 5864
5854 5855 5857 5858 5859 5861 5862 5863 5864 5864 5865 5866 5866 5867 5867 5867 5867 5868 5868 5868 5868 5868 5868 5868 5868 5868 5868 5867 5867 5867 5866 5866 5866 5865 5865 5865 5864 5864 5863 5863 5863 5862 5862
5850 5852 5854 5855 5857 5858 5859 5861 5862 5862 5863 5864 5864 5865 5865 5866 5866 5866 5867 5867 5867 5867 5867 5867 5867 5866 5866 5866 5866 5865 5865 5864 5864 5864 5863 5863 5862 5862 5861 5860 5860 5860 5859
5846 5848 5850 5852 5853 5855 5856 5858 5859 5860 5861 5862 5862 5863 5864 5864 5865 5865 5865 5865 5865 5865 5865 5865 5865 5865 5864 5864 5864 5863 5863 5862 5862 5861 5861 5860 5860 5859 5858 5858 5857 5857 5856
5842 5844 5846 5848 5850 5852 5853 5855 5856 5858 5859 5859 5860 5861 5862 5862 5863 5863 5863 5863 5863 5863 5863 5863 5863 5863 5862 5862 5861 5861 5860 5860 5859 5859 5858 5858 5857 5856 5855 5855 5854 5853 5853
5837 5840 5842 5844 5846 5848 5850 5852 5853 5855 5856 5857 5858 5858 5859 5860 5860 5860 5861 5861 5861 5861 5861 5861 5860 5860 5860 5860 5859 5858 5858 5857 5856 5856 5855 5855 5854 5853 5852 5852 5851 5850 5849
5832 5835 5837 5840 5842 5844 5846 5848 5850 5851 5853 5854 5855 5855 5856 5857 5857 5858 5858 5858 5858 5858 5858 5858 5858 5858 5857 5857 5856 5855 5855 5854 5853 5853 5852 5851 5851 5850 5849 5848 5848 5847 5846
5827 5830 5833 5835 5837 5840 5842 5844 5846 5848 5849 5850 5852 5852 5853 5854 5854 5855 5855 5855 5855 5855 5855 5855 5855 5855 5854 5854 5853 5852 5852 5851 5850 5850 5849 5848 5847 5846 5846 5845 5844 5843 5842
5821 5824 5827 5830 5833 5835 5837 5840 5842 5844 5845 5847 5848 5849 5850 5850 5851 5851 5852 5852 5852 5852 5852 5852 5851 5851 5850 5850 5849 5849 5848 5847 5847 5846 5845 5845 5844 5843 5842 5841 5840 5839 5838
5814 5818 5822 5825 5828 5830 5833 5835 5838 5840 5841 5843 5844 5845 5846 5847 5847 5848 5848 5848 5848 5848 5848 5848 5847 5847 5846 5846 5845 5845 5844 5844 5843 5842 5841 5841 5840 5839 5838 5837 5836 5835 5834
5808 5812 5816 5819 5822 5825 5828 5830 5833 5835 5837 5838 5840 5841 5842 5843 5843 5843 5844 5844 5844 5844 5844 5844 5843 5843 5842 5841 5841 5840 5840 5839 5839 5838 5837 5836 5836 5835 5834 5833 5832 5831 5830
5802 5806 5810 5814 5817 5820 5823 5825 5828 5830 5832 5834 5835 5836 5837 5838 5839 5839 5840 5840 5840 5840 5840 5839 5839 5838 5837 5837 5836 5836 5836 5835 5834 5834 5833 5832 5831 5830 5829 5828 5827 5826 5825
5797 5801 5805 5808 5812 5815 5818 5820 5823 5825 5827 5829 5830 5832 5832 5834 5834 5835 5835 5835 5836 5836 5835 5835 5834 5834 5833 5833 5832 5832 5831 5831 5830 5829 5828 5827 5826 5825 5824 5823 5822 5821 5820
5791 5795 5799 5803 5806 5809 5812 5815 5818 5820 5822 5824 5825 5827 5828 5829 5830 5831 5831 5831 5831 5831 5830 5830 5829 5829 5828 5828 5827 5827 5826 5826 5825 5824 5823 5822 5821 5820 5819 5818 5816 5815 5814
5785 5790 5794 5797 5801 5804 5807 5810 5813 5815 5817 5819 5820 5822 5823 5824 5825 5826 5826 5826 5826 5826 5825 5825 5825 5824 5824 5823 5823 5822 5821 5821 5820 5819 5818 5817 5816 5814 5813 5812 5811 5809 5808
5780 5784 5788 5792 5795 5799 5802 5805 5807 5810 5812 5814 5815 5816 5817 5818 5820 5820 5821 5821 5821 5821 5820 5820 5820 5819 5818 5818 5817 5817 5816 5815 5814 5813 5812 5811 5810 5809 5807 5806 5805 5803 5801
5774 5779 5782 5785 5789 5793 5796 5799 5802 5804 5806 5808 5810 5811 5812 5813 5814 5814 5815 5815 5815 5815 5815 5814 5814 5814 5813 5812 5812 5811 5810 5809 5808 5807 5806 5805 5804 5803 5801 5800 5798 5796 5794
5769 5773 5777 5780 5784 5787 5790 5793 5796 5798 5800 5802 5804 5805 5806 5807 5807 5808 5809 5809 5809 5809 5809 5809 5808 5808 5807 5807 5806 5805 5804 5803 5802 5801 5800 5799 5797 5796 5795 5793 5791 5789 5788
5764 5768 5771 5775 5778 5781 5784 5787 5789 5792 5794 5795 5797 5798 5800 5801 5801 5802 5802 5802 5802 5802 5802 5802 5802 5802 5801 5800 5799 5798 5798 5797 5796 5795 5793 5792 5791 5789 5788 5786 5784 5782 5780
5758 5762 5766 5769 5772 5775 5778 5781 5783 5785 5787 5788 5790 5792 5793 5794 5795 5795 5795 5795 5795 5795 5795 5795 5795 5795 5794 5794 5793 5792 5791 5790 5789 5788 5786 5785 5784 5782 5780 5779 5777 5774 5772
5754 5757 5760 5764 5766 5769 5772 5774 5776 5778 5780 5782 5783 5785 5786 5787 5788 5788 5788 5788 5788 5788 5788 5788 5788 5787 5787 5786 5786 5785 5783 5782 5781 5780 5779 5777 5776 5774 5772 5770 5768 5766 5764
5749 5752 5755 5758 5761 5763 5766 5768 5770 5772 5773 5775 5776 5778 5779 5780 5780 5781 5781 5781 5781 5781 5780 5780 5780 5779 5779 5778 5778 5777 5776 5776 5774 5772 5771 5769 5768 5766 5764 5762 5760 5758 5755
5744 5747 5750 5753 5755 5757 5760 5762 5763 5765 5766 5768 5769 5770 5771 5772 5772 5773 5773 5773 5773 5773 5773 5772 5772 5771 5771 5770 5769 5768 5767 5767 5766 5764 5762 5760 5758 5757 5755 5752 5750 5748 5746
5739 5742 5744 5747 5749 5752 5753 5755 5757 5758 5759 5760 5761 5762 5763 5763 5764 5764 5765 5765 5764 5764 5764 5764 5763 5762 5762 5761 5760 5759 5758 5757 5756 5755 5754 5751 5749 5747 5745 5743 5740 5738 5736
5734 5737 5739 5741 5743 5745 5747 5749 5750 5751 5752 5753 5754 5754 5755 5755 5755 5755 5756 5755 5755 5755 5755 5755 5754 5753 5753 5752 5751 5749 5748 5746 5745 5744 5743 5741 5739 5736 5734 5732 5730 5727 5725
5729 5731 5733 5735 5737 5739 5741 5742 5743 5744 5745 5745 5746 5746 5746 5746 5746 5746 5747 5747 5746 5746 5746 5746 5745 5744 5743 5742 5741 5740 5738 5736 5734 5733 5732 5730 5728 5726 5723 5721 5718 5716 5714